Regional Weather Roundup
Issued by NWS

Home | Current Version | Previous Version | Text Only | Print | Product List | Glossary Off
Versions: 1 2 3 4 5 6 7 8 9 10 11 12 13 14 15 16 17 18 19 20 21 22 23 24 25 26 27 28 29 30 31 32 33 34 35 36 37 38 39 40 41 42 43 44 45 46 47 48 49 50

000
ASUS43 KLOT 220604
RWRIL

ILLINOIS REGIONAL WEATHER ROUNDUP
NATIONAL WEATHER SERVICE CHICAGO/ROMEOVILLE IL
100 AM CDT FRI SEP 22 2017

NOTE: "FAIR" INDICATES FEW OR NO CLOUDS BELOW 12,000 FEET WITH NO
SIGNIFICANT WEATHER AND/OR OBSTRUCTIONS TO VISIBILITY.

* THESE STATIONS ARE NOT UNDER NWS QUALITY CONTROL. THEY ALSO MAY NOT
  REPORT WEATHER SUCH AS PRECIPITATION OR FOG.

ILZ001-002-007-009-015-016-024-220700-
NORTHWEST ILLINOIS

CITY           SKY/WX    TMP DP  RH WIND       PRES   REMARKS
MOLINE         CLEAR     74  68  81 S6        29.97R
6HR MIN TEMP:  74; 6HR MAX TEMP:  82;

STERLING*      CLEAR     68  66  93 CALM      30.00S
SAVANNA*       CLEAR     69  67  92 CALM      29.99R
$$

ILZ003-004-008-010-011-017-018-220700-
NORTH CENTRAL ILLINOIS

CITY           SKY/WX    TMP DP  RH WIND       PRES   REMARKS
ROCKFORD       CLOUDY    73  68  84 CALM      30.02S
6HR MIN TEMP:  72; 6HR MAX TEMP:  80;

FREEPORT*      CLEAR     70  68  93 S6        30.02S
ROCHELLE*      CLEAR     70  68  95 S6        30.02S
DE KALB*       CLOUDY    73  70  91 S6        30.03S
PERU*          CLOUDY    76  68  76 S6        30.02S
$$

ILZ005-006-012>014-019>023-220700-
NORTHEAST ILLINOIS

CITY           SKY/WX    TMP DP  RH WIND       PRES   REMARKS
CHICAGO-OHARE  MOCLDY    80  68  66 S7        30.02R HX  83
6HR MIN TEMP:  79; 6HR MAX TEMP:  88;

CHICAGO-MIDWAY MOCLDY    83  68  60 S7        30.02R HX  86
6HR MIN TEMP:  83; 6HR MAX TEMP:  90;

AURORA         PTCLDY    73  71  93 SE5       30.03S
6HR MIN TEMP:  71; 6HR MAX TEMP:  81;

LANSING*       CLEAR     72  69  88 CALM      30.03S
JOLIET*        MOCLDY    75  71  86 CALM      30.03R
WAUKEGAN       CLEAR     69  68  96 CALM      30.01S FOG
6HR MIN TEMP:  68; 6HR MAX TEMP:  75;

DUPAGE AIRPORT PTCLDY    74  70  87 S5        30.02R
6HR MIN TEMP:  73; 6HR MAX TEMP:  83;

KANKAKEE*      CLEAR     69  67  93 CALM      30.05R
WHEELING       PTCLDY    76  71  85 CALM      30.03S
6HR MIN TEMP:  76; 6HR MAX TEMP:  82;

MORRIS*        CLOUDY    74  70  87 SE3       30.01S
ROMEOVILLE*    CLOUDY    73  68  83 S5        30.03R
NORTHERLY ISL    N/A     80  66  62 S8          N/A  HX  82
$$

LMZ740>746-220700-
SOUTHERN LAKE MICHIGAN

STATION/POSITION SKY/WX   TEMP    WIND        PRES    VSBY  WAVE
                          AIR SEA DIR/SP/G                  HT/PER
                          (F)     (DEG/KT/KT) (MB)    (MI)  (FT/S)
SOUTHERN BUOY              73 70  120/ 12/ 12 1016.5          1/ 2
WILMETTE HARBOR            73 71  160/  6/  6   N/A           1
HARRISON CRIB              76     140/  5/  5   N/A
BURNHAM HARBOR             77                   N/A
CALUMET HARBOR             80     160/  4/  5 1016.0F
BURNS HARBOR               80     170/  6/ 10 1017.3S
MICHIGAN CITY              77     130/  8/  8   N/A
MICHIGAN CITY 6N           74 70  150/  6/  8   N/A           0
ST. JOSEPH                 74 71  160/  6/  8 1016.9S         0
$$

ILZ025>027-034>036-040-047-049-050-058-095>099-220700-
WEST-CENTRAL ILLINOIS

CITY           SKY/WX    TMP DP  RH WIND       PRES   REMARKS
QUINCY         CLEAR     77  68  73 SE9       29.98S
GALESBURG*     CLEAR     73  68  84 SE6       30.00S
MACOMB*        CLEAR     71  68  90 S5        30.01S
PITTSFIELD*    CLEAR     73  69  86 SE5       30.01S
$$

ILZ028>032-037-038-041>044-048-051>054-059>061-220700-
CENTRAL ILLINOIS

CITY           SKY/WX    TMP DP  RH WIND       PRES   REMARKS
PONTIAC        MOCLDY    70  69  98 CALM      30.03S
BLOOMINGTON    MOCLDY    73  67  81 S8        30.05R
DECATUR        PTCLDY    73  66  78 S3        30.04S
PEORIA         CLEAR     76  69  79 S6        30.01S
6HR MIN TEMP:  76; 6HR MAX TEMP:  81;

LACON*         CLEAR     73  69  87 S3        30.00S
LINCOLN*       MOCLDY    70  68  93 SE3       30.02S
SPRINGFIELD    CLOUDY    75  68  78 S6        30.02S
6HR MIN TEMP:  75; 6HR MAX TEMP:  84;

TAYLORVILLE    CLEAR     72  66  80 SE7       30.04R
6HR MIN TEMP:  71; 6HR MAX TEMP:  81;

$$

ILZ033-039-045-046-055>057-062-063-220700-
EAST-CENTRAL ILLINOIS

CITY           SKY/WX    TMP DP  RH WIND       PRES   REMARKS
CHAMPAIGN      CLEAR     73  65  75 S6        30.05S
RANTOUL*       CLEAR     74  69  85 CALM      30.06R
MATTOON        CLEAR     71  68  90 S5        30.04S
PARIS*         CLEAR     70  67  90 CALM      30.07R
$$

ILZ079-100>102-220700-
SOUTHWEST ILLINOIS

CITY           SKY/WX    TMP DP  RH WIND       PRES   REMARKS
ALTON          CLEAR     70  68  95 CALM      30.02F
BELLEVILLE     CLEAR     68  66  93 CALM      30.04S
CAHOKIA*       CLEAR     75  68  78 S3        30.02R
SPARTA*        CLEAR     73  69  88 SE3       30.04S
$$

ILZ064>066-069>071-074>076-080>082-084>086-088>090-092>094-220700-
SOUTH-CENTRAL ILLINOIS

CITY           SKY/WX    TMP DP  RH WIND       PRES   REMARKS
CARBONDALE     CLEAR     70  70 100 E3        30.03S
6HR MIN TEMP:  68; 6HR MAX TEMP:  81;

CAIRO*         CLEAR     69  69 100 CALM      30.03S
EFFINGHAM*     CLEAR     70  68  92 E5        30.06S
MARION         PTCLDY    72  72 100 CALM      30.04S
MT. VERNON       N/A     68  67  96 CALM      30.05R
CENTRALIA*     CLEAR     69  68  94 SE3       30.03S
SALEM*         CLEAR     75  67  77 CALM      30.05R
METROPOLIS*    CLEAR     69  68  98 CALM      30.04S FOG
$$

ILZ067-068-072-073-078-083-087-091-220700-
SOUTHEAST ILLINOIS

CITY           SKY/WX    TMP DP  RH WIND       PRES   REMARKS
LAWRENCEVILLE  CLEAR     72  70  93 CALM      30.05S
FLORA*         CLEAR     71  68  89 CALM      30.05R
FAIRFIELD*     CLEAR     70  67  90 CALM      30.04S
HARRISBURG*    CLEAR     69  68  96 CALM      30.04F
ROBINSON*      CLEAR     67  67  98 CALM      30.06S
CARMI*         CLEAR     70  69  97 CALM      30.04S
$$

ABBREVIATIONS USED IN REMARKS
   TC - TEMPERATURE IN CELSIUS
  WCI - WIND CHILL INDEX
   HX - HEAT INDEX
  VSB - VISIBILITY
$$





USA.gov is the U.S. government's official web portal to all federal, state and local government web resources and services.